FREGAT R/B, 68537

Orbit data source: Space-Track

FREGAT R/B, 68537 is space debris in LEO originally from a launch on Mon, 23 Mar 2026 UTC via a SOYUZ-2-1B launch vehicle from the Plesetsk Missile And Space Complex (PKMTR). Debris objects in space refer to the collection of defunct objects orbiting the Earth. Examples of debris include non-operational satellites, rocket bodies, and fragments generated from explosions, collisions, or faulty payload assembly.

Not visible in the next 10 days
Identifier
68537, 2026-061S
Orbit
LEO
Country
Flag of CISCIS
Related business
Manufacturer
Unknown (RU)
Mission
Spacecraft
Bus & Motor
OBZP, Unknown motor
Mass
~2,360 kg wet, ~10 kg dry
Launch date (UTC)
2026-03-23 (1 month ago)
Launch vehicle
SOYUZ-2-1B
Launch site
Plesetsk Missile And Space Complex (PKMTR)
Object type
Payload
Rocket body
Debris
Shape & HBR
Unknown
Radar Cross Section
RCS unknown

Expand to show TLE details & history
Last TLE update: 9 hours ago

TLE from 9 hours ago
0 FREGAT R/B
1 68537U 26061S   26119.47431348  .00395256  70245-4  56508-3 0  9996
2 68537  82.3008  66.7289 0013637 257.6341 102.3413 16.05295047  5860
Epoch: 2026-04-29T11:23Z
TLE epoch observation values (Epoch: 2026-04-29T11:23:00.684Z)
Latitude
-0.00003°
Longitude
38.54129°
Altitude
264.925 km
Speed
7.747 km/s
True Right ascension
04h 26m 54s
True Declination
0° 00' 00"
Sunlit
Object was in daylight at epoch
Visualization orbit readout
Latitude
Unknown
Longitude
Unknown
Altitude
Unknown
Speed
Unknown
Apparent Right ascension
Unknown
Apparent Declination
Unknown
Sunlit
N/A
Visualization observer readout
Local Sidereal Time
03:41:11
Azimuth
Unknown
Elevation
Unknown
Doppler factor
Unknown
Orbital elements
Apogee altitude
265.696 km
Perigee altitude
247.6 km
Semi-major axis
6,634.785 km
Eccentricity
0.00136
Inclination
82.3008°
RAAN
66.7289°
Arg. of periapsis
257.6341°
True anomaly
102.4939°
Mean anomaly
102.3413°
Eccentric anomaly
102.41761°
Mean motion
4.01608 °/min
Orbital period
89.64 mins
BSTAR
0.00056508
Loading maneuver chart data...
Computing Atmospheric mass density...
Loading historical data...
Loading historical data...
Loading historical data...
Loading historical data...
Loading historical data...
Loading historical data...
Loading historical data...

Documentation

Showing up to 5 results
|